^^
Datos históricos de la estación: Murcia-Puente Tocinos
Diario Informe para Agosto 15, 2019 Unidades:  Métrico    Ingés   Ambas
Diario Semanal Mensual Anual
  Máxima: Mínima: Promedio:
Temperatura: 28.4 °C 20.6 °C 24.1 °C
Punto de rocio: 21.9 °C 18.7 °C 20 °C
Humedad: 90% 61.3% 79%
Velocidad viento: 18km/h 0km/h 7.3km/h
Racha viento: 32.2km/h - -
Viento- - SSE
Presión: 1018.3 hPa 1014.9 hPa -
Precipitación: 0.0 mm    
 
 
Tabla de datos para Agosto 15, 2019
Hora Temperatura Punto de rocio Presión Viento Velocidad viento Racha viento Humedad Intensidad lluvia(por hora) Nubes
00:04 22.4 °C 19.8 °C 1018.1 hPa SO 3.2 km/h 8 km/h 85% 0.0 mm
00:09 22.4 °C 19.8 °C 1017.8 hPa SO 3.3 km/h 8 km/h 85% 0.0 mm
00:14 22.3 °C 19.8 °C 1017.8 hPa SO 3.8 km/h 9.7 km/h 85.8% 0.0 mm
00:19 22.2 °C 19.7 °C 1018.0 hPa SO 4.1 km/h 9.5 km/h 86% 0.0 mm
00:24 22.2 °C 19.7 °C 1018.0 hPa OSO 5 km/h 9.7 km/h 86% 0.0 mm
00:29 22.1 °C 19.7 °C 1018.0 hPa SO 5 km/h 9.7 km/h 86% 0.0 mm
00:34 22.1 °C 19.7 °C 1018.0 hPa SSO 5 km/h 8.4 km/h 86% 0.0 mm
00:39 22.1 °C 19.7 °C 1017.9 hPa Sur 5.1 km/h 8.4 km/h 86% 0.0 mm
00:44 22.1 °C 19.7 °C 1017.9 hPa Sur 5.8 km/h 8 km/h 86% 0.0 mm
00:49 22.1 °C 19.8 °C 1018.0 hPa SSO 5.8 km/h 8.7 km/h 87% 0.0 mm
00:54 22 °C 19.7 °C 1018.0 hPa SE 5.8 km/h 9.7 km/h 87% 0.0 mm
00:59 21.8 °C 19.6 °C 1018.0 hPa SSE 6.2 km/h 13 km/h 87% 0.0 mm
01:04 21.7 °C 19.5 °C 1018.3 hPa Sur 7.6 km/h 13 km/h 87% 0.0 mm
01:09 21.7 °C 19.6 °C 1018.3 hPa SO 7.4 km/h 11.3 km/h 87.9% 0.0 mm
01:14 21.7 °C 19.6 °C 1018.3 hPa SSO 6.9 km/h 9.7 km/h 88% 0.0 mm
01:19 21.7 °C 19.6 °C 1018.3 hPa SE 6.2 km/h 8 km/h 88% 0.0 mm
01:24 21.7 °C 19.5 °C 1018.3 hPa ESE 3.2 km/h 8 km/h 87.2% 0.0 mm
01:29 21.7 °C 19.4 °C 1018.3 hPa Sur 3.5 km/h 8 km/h 87% 0.0 mm
01:34 21.7 °C 19.4 °C 1018.3 hPa Sur 4.7 km/h 9.5 km/h 87% 0.0 mm
01:39 21.7 °C 19.4 °C 1018.1 hPa SSO 4.7 km/h 9.7 km/h 87% 0.0 mm
01:44 21.7 °C 19.4 °C 1018.1 hPa SO 5 km/h 11.1 km/h 87% 0.0 mm
01:49 21.7 °C 19.4 °C 1018.1 hPa SSE 5.1 km/h 11.3 km/h 87% 0.0 mm
01:54 21.7 °C 19.4 °C 1018.0 hPa SSO 5.8 km/h 9.7 km/h 87% 0.0 mm
01:59 21.7 °C 19.4 °C 1018.0 hPa SO 5.6 km/h 9.7 km/h 87% 0.0 mm
02:04 21.7 °C 19.4 °C 1018.0 hPa SE 5 km/h 9.7 km/h 87% 0.0 mm
02:09 21.6 °C 19.4 °C 1017.6 hPa Sur 4.9 km/h 10.3 km/h 87% 0.0 mm
02:14 21.6 °C 19.3 °C 1017.6 hPa SSO 4.7 km/h 11.9 km/h 87% 0.0 mm
02:19 21.6 °C 19.3 °C 1017.6 hPa Sur 5 km/h 11.3 km/h 87% 0.0 mm
02:24 21.6 °C 19.3 °C 1017.3 hPa SSO 6.4 km/h 10 km/h 87% 0.0 mm
02:29 21.6 °C 19.3 °C 1017.3 hPa SSO 6.3 km/h 9.7 km/h 87% 0.0 mm
02:34 21.6 °C 19.3 °C 1017.3 hPa SSO 5.8 km/h 14.8 km/h 87% 0.0 mm
02:39 21.6 °C 19.3 °C 1017.2 hPa SO 6.3 km/h 16.7 km/h 87% 0.0 mm
02:44 21.6 °C 19.3 °C 1017.2 hPa SO 8.7 km/h 16.1 km/h 87% 0.0 mm
02:49 21.6 °C 19.2 °C 1017.2 hPa SO 8.7 km/h 14.5 km/h 86.2% 0.0 mm
02:54 21.6 °C 19.2 °C 1017.2 hPa SO 8.7 km/h 16.1 km/h 86% 0.0 mm
02:59 21.6 °C 19.2 °C 1017.2 hPa SO 9 km/h 17.2 km/h 86% 0.0 mm
03:04 21.6 °C 19.2 °C 1017.2 hPa SO 10 km/h 17.7 km/h 86% 0.0 mm
03:09 21.6 °C 19.1 °C 1017.1 hPa SO 9.7 km/h 14.5 km/h 86% 0.0 mm
03:14 21.5 °C 19 °C 1017.1 hPa SO 8.4 km/h 13 km/h 86% 0.0 mm
03:19 21.4 °C 18.9 °C 1017.1 hPa SO 8.2 km/h 14.8 km/h 86% 0.0 mm
03:24 21.4 °C 18.9 °C 1017.0 hPa SO 7.6 km/h 14.5 km/h 86% 0.0 mm
03:29 21.4 °C 18.9 °C 1017.0 hPa SSO 7.6 km/h 14.5 km/h 86% 0.0 mm
03:34 21.3 °C 18.9 °C 1017.0 hPa SSO 7.6 km/h 14.5 km/h 86% 0.0 mm
03:39 21.3 °C 19 °C 1016.8 hPa SO 7.8 km/h 14.8 km/h 86.4% 0.0 mm
03:44 21.3 °C 19.1 °C 1016.8 hPa SSE 8.7 km/h 14.5 km/h 87% 0.0 mm
03:49 21.2 °C 19 °C 1016.8 hPa SSE 8.3 km/h 11.3 km/h 87% 0.0 mm
03:54 21.2 °C 18.9 °C 1016.5 hPa SSO 6.5 km/h 14.8 km/h 87% 0.0 mm
03:59 21.1 °C 18.8 °C 1016.5 hPa SSO 6.9 km/h 15.6 km/h 87% 0.0 mm
04:04 21.1 °C 18.8 °C 1016.6 hPa SSO 8.4 km/h 16.1 km/h 87% 0.0 mm
04:09 21.2 °C 18.9 °C 1016.6 hPa SSO 8.4 km/h 14.8 km/h 87% 0.0 mm
04:14 21.2 °C 18.9 °C 1016.6 hPa SO 8.7 km/h 14.5 km/h 86.5% 0.0 mm
04:19 21.3 °C 18.9 °C 1016.6 hPa Sur 8.4 km/h 11.3 km/h 86% 0.0 mm
04:24 21.3 °C 18.9 °C 1016.3 hPa Sur 6.9 km/h 9.7 km/h 86% 0.0 mm
04:29 21.3 °C 18.9 °C 1016.3 hPa Sur 6.2 km/h 9.7 km/h 86% 0.0 mm
04:34 21.3 °C 18.9 °C 1016.3 hPa SO 2.9 km/h 8.4 km/h 86% 0.0 mm
04:39 21.3 °C 18.9 °C 1016.2 hPa OSO 3.3 km/h 8 km/h 86% 0.0 mm
04:44 21.3 °C 18.9 °C 1016.2 hPa SO 4.7 km/h 11.1 km/h 86% 0.0 mm
04:49 21.3 °C 18.9 °C 1016.3 hPa SO 5.2 km/h 13.7 km/h 86% 0.0 mm
04:54 21.3 °C 18.9 °C 1016.3 hPa SO 7.6 km/h 14.5 km/h 86% 0.0 mm
04:59 21.3 °C 18.9 °C 1016.3 hPa SSO 7.4 km/h 11.3 km/h 86% 0.0 mm
05:04 21.3 °C 18.9 °C 1016.3 hPa SSO 6.9 km/h 9.7 km/h 86% 0.0 mm
05:09 21.3 °C 18.9 °C 1016.2 hPa SO 6.5 km/h 9.7 km/h 86% 0.0 mm
05:14 21.3 °C 18.9 °C 1016.2 hPa SO 5 km/h 9.5 km/h 86% 0.0 mm
05:19 21.3 °C 18.9 °C 1016.2 hPa SSO 5.1 km/h 10 km/h 86% 0.0 mm
05:24 21.2 °C 18.8 °C 1016.0 hPa SSO 5.8 km/h 10 km/h 86% 0.0 mm
05:29 21.2 °C 18.8 °C 1016.0 hPa SO 6.1 km/h 14.8 km/h 86% 0.0 mm
05:34 21.2 °C 18.8 °C 1016.0 hPa SSO 7.6 km/h 14.5 km/h 86% 0.0 mm
05:39 21.2 °C 18.7 °C 1016.0 hPa Sur 7.2 km/h 11.3 km/h 86% 0.0 mm
05:44 21.1 °C 18.8 °C 1016.0 hPa SO 5.8 km/h 9.5 km/h 86.6% 0.0 mm
05:49 21.1 °C 18.8 °C 1016.0 hPa OSO 5.6 km/h 9.7 km/h 87% 0.0 mm
05:54 21.1 °C 18.8 °C 1016.0 hPa OSO 5 km/h 8 km/h 87% 0.0 mm
05:59 21 °C 18.8 °C 1016.0 hPa Oeste 4.6 km/h 8.4 km/h 87% 0.0 mm
06:04 20.9 °C 18.7 °C 1016.0 hPa NO 3.2 km/h 8.4 km/h 87% 0.0 mm
06:09 20.9 °C 18.8 °C 1016.0 hPa NE 3.2 km/h 8 km/h 88% 0.0 mm
06:14 20.8 °C 18.7 °C 1016.0 hPa NNO 3.2 km/h 6.4 km/h 88% 0.0 mm
06:19 20.8 °C 18.7 °C 1016.0 hPa OSO 3 km/h 7.4 km/h 88.1% 0.0 mm
06:24 20.7 °C 18.8 °C 1015.9 hPa ONO 2.2 km/h 8.4 km/h 89% 0.0 mm
06:29 20.7 °C 18.8 °C 1015.9 hPa OSO 2.8 km/h 9.3 km/h 89% 0.0 mm
06:34 20.6 °C 18.7 °C 1015.9 hPa OSO 5 km/h 9.7 km/h 89% 0.0 mm
06:39 20.6 °C 18.7 °C 1015.7 hPa OSO 4.6 km/h 7.6 km/h 89.1% 0.0 mm
06:44 20.6 °C 18.9 °C 1015.7 hPa SO 3.2 km/h 10 km/h 90% 0.0 mm
06:49 20.6 °C 18.9 °C 1015.8 hPa SO 3.7 km/h 10 km/h 90% 0.0 mm
06:54 20.6 °C 18.9 °C 1015.8 hPa SO 5.8 km/h 9.7 km/h 90% 0.0 mm
06:59 20.6 °C 18.9 °C 1015.8 hPa SO 5.9 km/h 10.3 km/h 90% 0.0 mm
07:04 20.7 °C 18.8 °C 1015.8 hPa OSO 6.4 km/h 11.3 km/h 89% 0.0 mm
07:09 20.7 °C 18.8 °C 1015.8 hPa SO 6.5 km/h 11.3 km/h 89% 0.0 mm
07:14 20.8 °C 18.9 °C 1015.8 hPa SO 6.5 km/h 13 km/h 89% 0.0 mm
07:19 20.8 °C 18.9 °C 1015.8 hPa SO 6.7 km/h 12.9 km/h 88.6% 0.0 mm
07:24 20.9 °C 18.8 °C 1015.8 hPa SO 7.6 km/h 11.3 km/h 88% 0.0 mm
07:29 21 °C 18.9 °C 1015.8 hPa SO 7.7 km/h 11.3 km/h 88% 0.0 mm
07:34 21 °C 19 °C 1015.8 hPa SO 8.4 km/h 11.3 km/h 88% 0.0 mm
07:39 21.1 °C 19 °C 1015.8 hPa SO 7.7 km/h 10 km/h 87.7% 0.0 mm
07:44 21.1 °C 18.8 °C 1015.8 hPa SO 5 km/h 11.1 km/h 87% 0.0 mm
07:49 21.1 °C 18.8 °C 1015.8 hPa SO 5.1 km/h 11.3 km/h 87% 0.0 mm
07:54 21.1 °C 18.8 °C 1015.7 hPa SO 5.8 km/h 8 km/h 87% 0.0 mm
07:59 21.1 °C 18.8 °C 1015.7 hPa SO 5.3 km/h 8 km/h 87% 0.0 mm
08:04 21.1 °C 18.8 °C 1015.7 hPa SO 3.9 km/h 8 km/h 87% 0.0 mm
08:09 21.1 °C 18.8 °C 1015.7 hPa SO 3.9 km/h 8 km/h 87% 0.0 mm
08:14 21.1 °C 18.8 °C 1015.7 hPa SO 3.9 km/h 8 km/h 87% 0.0 mm
08:19 21.1 °C 18.8 °C 1015.8 hPa SSO 4 km/h 8 km/h 87% 0.0 mm
08:24 21.1 °C 19.1 °C 1015.8 hPa SSO 4.7 km/h 8 km/h 88% 0.0 mm
08:29 21.1 °C 19.1 °C 1015.8 hPa SO 4.3 km/h 8 km/h 88% 0.0 mm
08:34 21.1 °C 19 °C 1015.8 hPa OSO 2.9 km/h 7.4 km/h 88% 0.0 mm
08:39 21.1 °C 19 °C 1015.7 hPa OSO 3 km/h 8 km/h 88% 0.0 mm
08:44 21.1 °C 19.1 °C 1015.7 hPa OSO 3.2 km/h 6.4 km/h 88% 0.0 mm
08:49 21.1 °C 19.1 °C 1015.9 hPa SO 2.6 km/h 5.8 km/h 88% 0.0 mm
08:54 21.1 °C 19.1 °C 1015.9 hPa Calm   7.6 km/h 88% 0.0 mm
08:59 21.2 °C 19.1 °C 1015.9 hPa SO 1 km/h 8 km/h 88% 0.0 mm
09:04 21.2 °C 19.1 °C 1016.1 hPa SO 4.7 km/h 8.4 km/h 88% 0.0 mm
09:09 21.2 °C 19.2 °C 1016.1 hPa SO 4.7 km/h 8 km/h 88% 0.0 mm
09:14 21.3 °C 19.2 °C 1016.1 hPa SO 4.7 km/h 8.4 km/h 87.4% 0.0 mm
09:19 21.5 °C 19.3 °C 1016.3 hPa SSO 4.9 km/h 8.4 km/h 87% 0.0 mm
09:24 21.7 °C 19.4 °C 1016.3 hPa SO 5.8 km/h 8.7 km/h 86.4% 0.0 mm
09:29 21.9 °C 19.3 °C 1016.3 hPa SO 5.9 km/h 13 km/h 85.3% 0.0 mm
09:34 22.2 °C 19.4 °C 1016.4 hPa SSO 6.4 km/h 12.9 km/h 84.1% 0.0 mm
09:39 22.3 °C 19.4 °C 1016.4 hPa SO 6.2 km/h 11.3 km/h 83.8% 0.0 mm
09:44 22.4 °C 19.4 °C 1016.4 hPa OSO 5 km/h 11.9 km/h 83% 0.0 mm
09:49 22.4 °C 19.3 °C 1016.6 hPa OSO 5.3 km/h 11.3 km/h 82.3% 0.0 mm
09:54 22.5 °C 19.3 °C 1016.6 hPa SO 6.9 km/h 11.3 km/h 82% 0.0 mm
09:59 22.6 °C 19.4 °C 1016.6 hPa SO 6.7 km/h 9.7 km/h 82% 0.0 mm
10:04 22.7 °C 19.4 °C 1016.8 hPa SO 5.8 km/h 10.3 km/h 81.4% 0.0 mm
10:09 22.8 °C 19.3 °C 1016.8 hPa SO 5.9 km/h 13 km/h 80.7% 0.0 mm
10:14 22.8 °C 19.4 °C 1016.8 hPa Oeste 6.4 km/h 12.9 km/h 81% 0.0 mm
10:19 23 °C 19.4 °C 1017.0 hPa SSO 6 km/h 11.1 km/h 80.4% 0.0 mm
10:24 23.1 °C 19.4 °C 1017.0 hPa SO 3.9 km/h 13 km/h 79.9% 0.0 mm
10:29 23.1 °C 19.5 °C 1017.0 hPa SO 4.7 km/h 13 km/h 80% 0.0 mm
10:34 23.2 °C 19.5 °C 1017.0 hPa SSO 8.4 km/h 13 km/h 80% 0.0 mm
10:39 23.3 °C 19.6 °C 1017.0 hPa SSO 8 km/h 13 km/h 80% 0.0 mm
10:44 23.4 °C 19.7 °C 1017.0 hPa SO 6.5 km/h 13 km/h 80% 0.0 mm
10:49 23.4 °C 19.7 °C 1017.0 hPa SO 6.8 km/h 13 km/h 79.7% 0.0 mm
10:54 23.5 °C 19.8 °C 1017.0 hPa SO 8.4 km/h 12.9 km/h 79.8% 0.0 mm
10:59 23.7 °C 19.8 °C 1017.0 hPa SO 7.9 km/h 11.3 km/h 79% 0.0 mm
11:04 23.8 °C 19.8 °C 1017.1 hPa SO 6.5 km/h 11.1 km/h 78.4% 0.0 mm
11:09 23.8 °C 19.8 °C 1017.1 hPa OSO 6.3 km/h 11.3 km/h 78% 0.0 mm
11:14 24.1 °C 19.9 °C 1017.1 hPa SSO 5.8 km/h 13 km/h 77.8% 0.0 mm
11:19 24.2 °C 19.9 °C 1017.3 hPa SSO 6 km/h 13 km/h 76.9% 0.0 mm
11:24 24.4 °C 20 °C 1017.3 hPa SO 6.9 km/h 13 km/h 76.8% 0.0 mm
11:29 24.6 °C 20.2 °C 1017.3 hPa SSO 6.7 km/h 12.9 km/h 76.5% 0.0 mm
11:34 24.7 °C 20 °C 1017.3 hPa SSO 5.8 km/h 11.3 km/h 75.3% 0.0 mm
11:39 24.8 °C 19.9 °C 1017.2 hPa SO 6 km/h 11.3 km/h 74.4% 0.0 mm
11:44 24.9 °C 20.2 °C 1017.2 hPa SSO 6.9 km/h 9.7 km/h 75% 0.0 mm
11:49 25.1 °C 20.1 °C 1017.2 hPa Oeste 6.5 km/h 8 km/h 74.1% 0.0 mm
11:54 25.2 °C 20.2 °C 1017.2 hPa SO 4.7 km/h 10 km/h 73.9% 0.0 mm
11:59 25.3 °C 20.1 °C 1017.2 hPa SO 4.9 km/h 11.1 km/h 73.1% 0.0 mm
12:04 25.4 °C 20 °C 1017.4 hPa SO 5.8 km/h 11.9 km/h 72.2% 0.0 mm
12:09 25.4 °C 20 °C 1017.4 hPa Sur 6 km/h 11.3 km/h 72% 0.0 mm
12:14 25.5 °C 19.9 °C 1017.4 hPa SSO 6.9 km/h 9.7 km/h 71.1% 0.0 mm
12:19 25.7 °C 20.1 °C 1017.4 hPa SSE 6.4 km/h 9.7 km/h 71.5% 0.0 mm
12:24 25.9 °C 20.2 °C 1016.9 hPa SSE 3.9 km/h 8 km/h 70.8% 0.0 mm
12:29 26.2 °C 20.3 °C 1016.9 hPa SSE 3.9 km/h 9.3 km/h 70.1% 0.0 mm
12:34 26.3 °C 20.4 °C 1017.0 hPa Sur 3.9 km/h 9.7 km/h 70.1% 0.0 mm
12:39 26.5 °C 20.4 °C 1017.0 hPa SO 3.7 km/h 5.6 km/h 69.3% 0.0 mm
12:44 26.7 °C 20.3 °C 1017.0 hPa SSO 2.9 km/h 8.4 km/h 68% 0.0 mm
12:49 26.8 °C 20.3 °C 1017.1 hPa SSE 2.9 km/h 8.4 km/h 67.3% 0.0 mm
12:54 27.1 °C 20.3 °C 1017.1 hPa SE 2.9 km/h 10 km/h 66.6% 0.0 mm
12:59 27.1 °C 20.4 °C 1017.1 hPa SSE 3.4 km/h 9.7 km/h 66.7% 0.0 mm
13:04 27.2 °C 20.3 °C 1017.1 hPa NE 5 km/h 9.7 km/h 66.4% 0.0 mm
13:09 27.3 °C 20.5 °C 1017.0 hPa North 4.7 km/h 10.3 km/h 66.3% 0.0 mm
13:14 27.4 °C 20.3 °C 1017.0 hPa Este 3.2 km/h 11.3 km/h 65.2% 0.0 mm
13:19 27.3 °C 20.2 °C 1017.0 hPa NE 4.1 km/h 15.6 km/h 65.3% 0.0 mm
13:24 27.2 °C 20.3 °C 1016.8 hPa NNO 7.6 km/h 16.1 km/h 66% 0.0 mm
13:29 27.3 °C 20.3 °C 1016.8 hPa NNE 7.4 km/h 13 km/h 65.9% 0.0 mm
13:34 27.3 °C 20.4 °C 1016.8 hPa NNE 6.5 km/h 15.6 km/h 65.9% 0.0 mm
13:39 27.4 °C 20.5 °C 1016.5 hPa NNE 6.6 km/h 16.1 km/h 65.8% 0.0 mm
13:44 27.6 °C 20.3 °C 1016.5 hPa NNE 6.9 km/h 14.5 km/h 64.6% 0.0 mm
13:49 27.7 °C 20.5 °C 1016.5 hPa NNE 6.8 km/h 14.8 km/h 64.9% 0.0 mm
13:54 27.7 °C 20.1 °C 1016.4 hPa NE 6.5 km/h 18.3 km/h 63.6% 0.0 mm
13:59 27.7 °C 20.1 °C 1016.4 hPa North 7.2 km/h 19.3 km/h 63.4% 0.0 mm
14:04 27.8 °C 20.3 °C 1016.4 hPa NE 9.5 km/h 19.3 km/h 63.7% 0.0 mm
14:09 28.1 °C 20.3 °C 1016.2 hPa NNE 9 km/h 14.5 km/h 62.8% 0.0 mm
14:14 28.3 °C 20.5 °C 1016.2 hPa NE 6.9 km/h 16.7 km/h 63% 0.0 mm
14:19 28.3 °C 20.4 °C 1016.2 hPa Este 7.2 km/h 18.5 km/h 62.3% 0.0 mm
14:24 28.2 °C 20.5 °C 1016.0 hPa NE 8.4 km/h 19.3 km/h 63% 0.0 mm
14:29 28.1 °C 20.5 °C 1016.0 hPa ENE 8.4 km/h 19.3 km/h 63.3% 0.0 mm
14:34 28 °C 20.4 °C 1016.0 hPa ENE 8.7 km/h 17.7 km/h 63.4% 0.0 mm
14:39 28 °C 20.6 °C 1015.9 hPa ENE 8.8 km/h 23.7 km/h 64% 0.0 mm
14:44 28.1 °C 20.7 °C 1015.9 hPa ENE 9.5 km/h 24.1 km/h 64.2% 0.0 mm
14:49 28.3 °C 20.7 °C 1015.9 hPa NE 9.4 km/h 16.7 km/h 63.5% 0.0 mm
14:54 28.3 °C 20.5 °C 1015.8 hPa ENE 8.7 km/h 16.1 km/h 62.9% 0.0 mm
14:59 28.3 °C 20.3 °C 1015.8 hPa NE 8.7 km/h 16.7 km/h 62% 0.0 mm
15:04 28.4 °C 20.2 °C 1015.8 hPa NE 8.7 km/h 20.9 km/h 61.3% 0.0 mm
15:09 28.3 °C 20.2 °C 1015.7 hPa NE 9.5 km/h 20.9 km/h 61.3% 0.0 mm
15:14 28.3 °C 20.4 °C 1015.7 hPa ENE 13 km/h 20.9 km/h 62% 0.0 mm
15:19 28.4 °C 20.5 °C 1015.7 hPa NNE 13 km/h 22.5 km/h 62.4% 0.0 mm
15:24 28.3 °C 20.5 °C 1015.6 hPa NNE 13 km/h 22.5 km/h 62.5% 0.0 mm
15:29 28.3 °C 20.9 °C 1015.6 hPa ENE 13 km/h 22.5 km/h 64.1% 0.0 mm
15:34 28.3 °C 21.1 °C 1015.6 hPa NE 13 km/h 24.1 km/h 65.1% 0.0 mm
15:39 28.3 °C 21.1 °C 1015.6 hPa NE 13.4 km/h 24.5 km/h 65.1% 0.0 mm
15:44 28.2 °C 21 °C 1015.6 hPa ENE 14.8 km/h 24.1 km/h 65% 0.0 mm
15:49 28.3 °C 21.3 °C 1015.6 hPa NE 14.2 km/h 24.1 km/h 65.8% 0.0 mm
15:54 28.3 °C 21.2 °C 1015.4 hPa ENE 11.9 km/h 24.1 km/h 65.3% 0.0 mm
15:59 28.2 °C 21.2 °C 1015.4 hPa ENE 12.3 km/h 27.8 km/h 65.6% 0.0 mm
16:04 28.2 °C 21 °C 1015.4 hPa NE 13.7 km/h 28.2 km/h 65.1% 0.0 mm
16:09 28 °C 20.9 °C 1015.2 hPa NE 14.3 km/h 31.5 km/h 65.5% 0.0 mm
16:14 28 °C 21.1 °C 1015.2 hPa NE 17.2 km/h 32.2 km/h 66% 0.0 mm
16:19 28.1 °C 21.1 °C 1015.2 hPa NE 16.7 km/h 24.1 km/h 65.8% 0.0 mm
16:24 28.2 °C 21.1 °C 1015.1 hPa NE 14.8 km/h 27.8 km/h 65.4% 0.0 mm
16:29 28.1 °C 21.1 °C 1015.1 hPa NE 14.8 km/h 27.8 km/h 65.5% 0.0 mm
16:34 28.2 °C 21 °C 1015.1 hPa ENE 14.8 km/h 25.9 km/h 65.1% 0.0 mm
16:39 28.1 °C 20.8 °C 1015.0 hPa NE 15.3 km/h 30.6 km/h 64.7% 0.0 mm
16:44 28 °C 20.6 °C 1015.0 hPa NE 17.2 km/h 30.6 km/h 64.2% 0.0 mm
16:49 28 °C 20.6 °C 1015.0 hPa NE 17.4 km/h 29.6 km/h 64.3% 0.0 mm
16:54 27.9 °C 20.7 °C 1015.0 hPa NE 18 km/h 29.1 km/h 64.9% 0.0 mm
16:59 27.9 °C 20.7 °C 1015.0 hPa NE 17.8 km/h 29.6 km/h 64.7% 0.0 mm
17:04 27.9 °C 20.6 °C 1015.0 hPa NE 17.2 km/h 31.5 km/h 64.5% 0.0 mm
17:09 27.9 °C 20.7 °C 1015.0 hPa NE 17.4 km/h 32.2 km/h 65% 0.0 mm
17:14 27.8 °C 20.6 °C 1015.0 hPa NE 18 km/h 32.2 km/h 64.9% 0.0 mm
17:19 27.8 °C 20.6 °C 1015.0 hPa NE 17.7 km/h 29 km/h 64.9% 0.0 mm
17:24 27.8 °C 20.7 °C 1014.9 hPa ENE 16.1 km/h 27.4 km/h 65.1% 0.0 mm
17:29 27.9 °C 20.7 °C 1014.9 hPa ENE 15.6 km/h 25.9 km/h 65% 0.0 mm
17:34 27.8 °C 20.9 °C 1014.9 hPa NE 13.7 km/h 25.7 km/h 65.9% 0.0 mm
17:39 27.8 °C 20.8 °C 1014.9 hPa NE 14.1 km/h 29.6 km/h 65.5% 0.0 mm
17:44 27.8 °C 20.9 °C 1014.9 hPa NE 15.6 km/h 29 km/h 66.1% 0.0 mm
17:49 27.8 °C 20.9 °C 1014.9 hPa ENE 14.9 km/h 25.6 km/h 66% 0.0 mm
17:54 27.8 °C 20.8 °C 1014.9 hPa ENE 11.9 km/h 25.9 km/h 65.9% 0.0 mm
17:59 27.7 °C 20.7 °C 1014.9 hPa NE 12.4 km/h 27.8 km/h 66% 0.0 mm
18:04 27.4 °C 20.6 °C 1014.9 hPa NE 14 km/h 27.4 km/h 66.1% 0.0 mm
18:09 27.4 °C 20.7 °C 1014.9 hPa NE 14.3 km/h 24.1 km/h 67% 0.0 mm
18:14 27.4 °C 20.7 °C 1014.9 hPa NE 15.6 km/h 24.1 km/h 67% 0.0 mm
18:19 27.4 °C 20.9 °C 1014.9 hPa NE 15.1 km/h 22.5 km/h 67.7% 0.0 mm
18:24 27.4 °C 20.7 °C 1014.9 hPa NE 13 km/h 22.5 km/h 67.2% 0.0 mm
18:29 27.3 °C 20.9 °C 1014.9 hPa ENE 12.9 km/h 22.5 km/h 67.9% 0.0 mm
18:34 27.2 °C 20.7 °C 1015.0 hPa ENE 12.2 km/h 20.9 km/h 68% 0.0 mm
18:39 27 °C 20.7 °C 1015.0 hPa NE 11.9 km/h 20.9 km/h 68.5% 0.0 mm
18:44 26.9 °C 20.8 °C 1015.0 hPa ENE 10.3 km/h 19.3 km/h 69.3% 0.0 mm
18:49 26.8 °C 20.8 °C 1015.0 hPa ENE 10.2 km/h 19.3 km/h 69.8% 0.0 mm
18:54 26.7 °C 20.6 °C 1015.0 hPa ENE 9.5 km/h 19 km/h 69.3% 0.0 mm
18:59 26.7 °C 20.6 °C 1015.0 hPa ENE 9.7 km/h 20.9 km/h 69% 0.0 mm
19:04 26.7 °C 20.6 °C 1015.0 hPa ENE 10.3 km/h 20.9 km/h 69.1% 0.0 mm
19:09 26.7 °C 20.7 °C 1014.9 hPa Este 10.3 km/h 19.3 km/h 70% 0.0 mm
19:14 26.6 °C 20.7 °C 1014.9 hPa Este 10.3 km/h 19.8 km/h 70% 0.0 mm
19:19 26.5 °C 20.8 °C 1014.9 hPa Este 10.7 km/h 24.1 km/h 70.9% 0.0 mm
19:24 26.3 °C 20.8 °C 1014.9 hPa Este 12.2 km/h 24.1 km/h 71.6% 0.0 mm
19:29 26.3 °C 20.8 °C 1014.9 hPa Este 11.7 km/h 20.9 km/h 72% 0.0 mm
19:34 26.2 °C 20.9 °C 1014.9 hPa ENE 9.5 km/h 18.5 km/h 72.5% 0.0 mm
19:39 26.1 °C 20.9 °C 1014.9 hPa ENE 9.7 km/h 20.9 km/h 73% 0.0 mm
19:44 25.9 °C 20.7 °C 1014.9 hPa ENE 10.3 km/h 20.9 km/h 73% 0.0 mm
19:49 25.8 °C 20.8 °C 1015.0 hPa ENE 10.2 km/h 20.9 km/h 73.8% 0.0 mm
19:54 25.8 °C 20.8 °C 1015.0 hPa ENE 10 km/h 22.2 km/h 74% 0.0 mm
19:59 25.7 °C 20.8 °C 1015.0 hPa ENE 10.2 km/h 22.5 km/h 74.4% 0.0 mm
20:04 25.6 °C 20.8 °C 1015.4 hPa ENE 11.1 km/h 20.9 km/h 75% 0.0 mm
20:09 25.5 °C 20.9 °C 1015.4 hPa NE 10.6 km/h 16.7 km/h 75.9% 0.0 mm
20:14 25.4 °C 20.9 °C 1015.4 hPa ENE 8.4 km/h 22.2 km/h 76.2% 0.0 mm
20:19 25.3 °C 21 °C 1015.4 hPa ENE 8.7 km/h 22.5 km/h 77% 0.0 mm
20:24 25.3 °C 21.1 °C 1015.3 hPa ENE 10 km/h 16.1 km/h 77.6% 0.0 mm
20:29 25.2 °C 21.1 °C 1015.3 hPa ENE 9.5 km/h 15.6 km/h 78% 0.0 mm
20:34 25.1 °C 21 °C 1015.4 hPa ENE 7.6 km/h 16.1 km/h 78% 0.0 mm
20:39 25.1 °C 21.2 °C 1015.4 hPa ENE 7.5 km/h 13 km/h 78.9% 0.0 mm
20:44 24.9 °C 21.1 °C 1015.4 hPa ENE 6.9 km/h 12.9 km/h 79% 0.0 mm
20:49 24.8 °C 21.1 °C 1015.5 hPa NE 6.7 km/h 11.3 km/h 79.7% 0.0 mm
20:54 24.8 °C 21.1 °C 1015.5 hPa NE 5.8 km/h 11.9 km/h 80% 0.0 mm
20:59 24.7 °C 21 °C 1015.5 hPa ENE 5.8 km/h 12.2 km/h 80% 0.0 mm
21:04 24.7 °C 21 °C 1015.6 hPa ENE 5.8 km/h 13 km/h 80% 0.0 mm
21:09 24.7 °C 21 °C 1015.6 hPa ENE 5.8 km/h 12.9 km/h 80% 0.0 mm
21:14 24.7 °C 21 °C 1015.6 hPa Este 5.8 km/h 10 km/h 80.4% 0.0 mm
21:19 24.6 °C 21.1 °C 1015.6 hPa Este 5.8 km/h 11.1 km/h 81% 0.0 mm
21:24 24.5 °C 21 °C 1015.5 hPa ENE 5.8 km/h 11.3 km/h 81% 0.0 mm
21:29 24.4 °C 21 °C 1015.5 hPa ENE 5.6 km/h 11.1 km/h 81% 0.0 mm
21:34 24.4 °C 21.1 °C 1016.0 hPa NE 5 km/h 11.3 km/h 81.9% 0.0 mm
21:39 24.4 °C 21.1 °C 1016.0 hPa NE 4.9 km/h 10 km/h 82% 0.0 mm
21:44 24.3 °C 21.1 °C 1016.0 hPa NE 4.7 km/h 11.9 km/h 82% 0.0 mm
21:49 24.3 °C 21.1 °C 1016.6 hPa NNE 4.9 km/h 11.3 km/h 82% 0.0 mm
21:54 24.3 °C 21.2 °C 1016.6 hPa NNO 5.8 km/h 9.7 km/h 82.8% 0.0 mm
21:59 24.2 °C 21.1 °C 1016.6 hPa NNO 5.2 km/h 8 km/h 83% 0.0 mm
22:04 24.2 °C 21.3 °C 1016.9 hPa NE 3.2 km/h 9.5 km/h 83.9% 0.0 mm
22:09 24.1 °C 21.3 °C 1016.9 hPa ENE 4 km/h 9.7 km/h 84.3% 0.0 mm
22:14 24.1 °C 21.4 °C 1016.9 hPa ENE 5.8 km/h 11.9 km/h 85% 0.0 mm
22:19 24 °C 21.4 °C 1016.9 hPa Este 5.8 km/h 11.3 km/h 85.3% 0.0 mm
22:24 23.9 °C 21.4 °C 1016.9 hPa Este 5.8 km/h 11.3 km/h 86% 0.0 mm
22:29 23.9 °C 21.5 °C 1016.8 hPa ENE 5.7 km/h 11.3 km/h 86.7% 0.0 mm
22:34 23.8 °C 21.5 °C 1017.0 hPa NE 4.7 km/h 8 km/h 87% 0.0 mm
22:39 23.8 °C 21.5 °C 1017.0 hPa ENE 4.5 km/h 7.4 km/h 87% 0.0 mm
22:44 23.8 °C 21.7 °C 1017.0 hPa Este 2.9 km/h 9.3 km/h 87.9% 0.0 mm
22:49 23.8 °C 21.7 °C 1017.0 hPa NE 3 km/h 9.7 km/h 88% 0.0 mm
22:54 23.8 °C 21.6 °C 1017.0 hPa NNE 3.9 km/h 8 km/h 88% 0.0 mm
22:59 23.7 °C 21.6 °C 1016.9 hPa NNO 3.7 km/h 6.4 km/h 88% 0.0 mm
23:04 23.7 °C 21.6 °C 1016.9 hPa NNO 2.9 km/h 4.8 km/h 88.2% 0.0 mm
23:09 23.6 °C 21.7 °C 1016.9 hPa NNO 2.7 km/h 3.2 km/h 89% 0.0 mm
23:14 23.6 °C 21.7 °C 1016.8 hPa Calm   5.8 km/h 89% 0.0 mm
23:19 23.6 °C 21.8 °C 1016.8 hPa ESE 0.4 km/h 9.5 km/h 89.6% 0.0 mm
23:24 23.6 °C 21.8 °C 1016.6 hPa ESE 4.6 km/h 9.7 km/h 89.6% 0.0 mm
23:29 23.6 °C 21.9 °C 1016.3 hPa ESE 4.6 km/h 9.7 km/h 90% 0.0 mm
23:34 23.5 °C 21.8 °C 1016.4 hPa Este 3.9 km/h 6.4 km/h 90% 0.0 mm
23:39 23.5 °C 21.8 °C 1016.4 hPa ENE 3.7 km/h 5.6 km/h 90% 0.0 mm
23:44 23.4 °C 21.7 °C 1016.4 hPa ENE 2.3 km/h 5.6 km/h 90% 0.0 mm
23:49 23.4 °C 21.7 °C 1016.5 hPa ESE 2.3 km/h 5.6 km/h 90% 0.0 mm
23:54 23.4 °C 21.7 °C 1016.5 hPa SSE 2.9 km/h 5.8 km/h 90% 0.0 mm
23:59 23.4 °C 21.7 °C 1016.5 hPa SSE 2.9 km/h 6.4 km/h 90% 0.0 mm
Murcia-Puente Tocinos, España
Compliments of Weather Underground - 3 mb

La estación de MeteoMurcia.com, publica sus datos en los siguientes proyectos:

Weather Underground PWS IMURCIAP2 Meteoclimatic www.awekas.at

W3Counter
Web Analytics